Oklahoma City Wiley Post, OK

6:58 AM CDT on June 24, 2017 (GMT -0500)
Wiley Post

Weather History for KPWA - November, 2013

Change the Weather History Date:

Sunday, November 24, 2013

  Actual Average Record
Temperature  
Mean Temperature 26 °F -  
Max Temperature 28 °F 56 °F 77 °F (1973)
Min Temperature 23 °F 33 °F 19 °F (1970)
Degree Days  
Heating Degree Days 40    
Moisture  
Dew Point 15 °F    
Average Humidity 66    
Maximum Humidity 80    
Minimum Humidity 45    
Precipitation  
Precipitation 0.15 in - - ()
Sea Level Pressure  
Sea Level Pressure 30.58 in    
Wind  
Wind Speed 9 mph (NE)    
Max Wind Speed 13 mph    
Max Gust Speed 18 mph    
Visibility 6 miles    
Events Rain , Snow    
Averages and records for this station are not official NWS values.
T = Trace of Precipitation, MM = Missing Value Source: NWS Daily Summary

Daily Weather History Graph

Daily Weather History Graph

Search for Another Location

Airport or City:

Trip Planner

Search our weather history database for the weather conditions in past years. The results will help you decide how hot, cold, wet, or windy it might be!

Date:

Astronomy

Nov. 24, 2013 Rise Set
Actual Time 7:15 AM CST 5:19 PM CST
Civil Twilight 6:47 AM CST 5:46 PM CST
Nautical Twilight 6:16 AM CST 6:18 PM CST
Astronomical Twilight 5:45 AM CST 6:48 PM CST
Moon 11:39 PM CST 12:09 PM CST
Length of Visible Light 10h 59m
Length of Day
10h 04m
Waning Gibbous, 60% of the Moon is Illuminated
Nov 24
Waning Gibbous
Nov 25
Last Quarter
Dec 2
New
Dec 9
First Quarter
Dec 17
Full

Hourly Weather History & Observations

Time (CST) Temp. Windchill Dew Point Humidity Pressure Visibility Wind Dir Wind Speed Gust Speed Precip Events Conditions
12:53 AM 28.0 °F 17.5 °F 9.0 °F 45% 30.68 in 10.0 mi NNE 12.7 mph 18.4 mph N/A   Clear
1:53 AM 27.0 °F 16.1 °F 9.0 °F 47% 30.67 in 10.0 mi NNE 12.7 mph - N/A   Overcast
2:53 AM 27.0 °F 18.0 °F 10.0 °F 49% 30.69 in 10.0 mi North 9.2 mph - N/A   Overcast
3:53 AM 26.1 °F 16.2 °F 10.0 °F 51% 30.70 in 10.0 mi North 10.4 mph - N/A   Overcast
4:53 AM 26.1 °F 15.0 °F 10.0 °F 51% 30.69 in 10.0 mi NNE 12.7 mph - N/A   Partly Cloudy
5:53 AM 25.0 °F 14.2 °F 10.0 °F 53% 30.69 in 10.0 mi North 11.5 mph - N/A   Overcast
6:53 AM 25.0 °F 15.5 °F 10.0 °F 53% 30.68 in 10.0 mi NNE 9.2 mph - N/A   Overcast
7:53 AM 25.0 °F 19.3 °F 10.0 °F 53% 30.69 in 10.0 mi NNE 4.6 mph - N/A   Overcast
8:49 AM 24.8 °F 15.3 °F 12.2 °F 59% 30.63 in 2.0 mi North 9.2 mph - 0.03 in   Overcast
8:53 AM 24.1 °F 15.2 °F 14.0 °F 65% 30.66 in 2.5 mi North 8.1 mph - 0.04 in   Overcast
9:03 AM 24.8 °F 16.1 °F 14.0 °F 64% 30.63 in 2.5 mi North 8.1 mph - 0.01 in Rain Light Freezing Rain
9:10 AM 24.8 °F 16.1 °F 14.0 °F 64% 30.63 in 2.5 mi NNE 8.1 mph - 0.02 in Rain Light Freezing Rain
9:20 AM 24.8 °F 15.3 °F 15.8 °F 69% 30.62 in 2.5 mi North 9.2 mph - 0.03 in Snow Light Snow
9:31 AM 24.8 °F 16.1 °F 15.8 °F 69% 30.61 in 3.0 mi NNE 8.1 mph - 0.03 in Snow Light Snow
9:38 AM 24.8 °F 16.1 °F 15.8 °F 69% 30.61 in 2.5 mi NNE 8.1 mph - 0.03 in Snow Light Snow
9:48 AM 24.8 °F 16.1 °F 15.8 °F 69% 30.61 in 3.0 mi NNE 8.1 mph - 0.03 in Snow Light Snow
9:53 AM 24.1 °F 14.4 °F 15.1 °F 69% 30.65 in 3.0 mi NNE 9.2 mph - 0.04 in Snow Light Snow
10:53 AM 23.0 °F 13.1 °F 17.1 °F 78% 30.64 in 1.8 mi North 9.2 mph - 0.03 in Snow Heavy Snow
11:02 AM 23.0 °F 14.7 °F 17.6 °F 80% 30.59 in 0.8 mi North 6.9 mph - 0.00 in Snow Heavy Snow
11:09 AM 23.0 °F 13.1 °F 17.6 °F 80% 30.59 in 0.5 mi North 9.2 mph - 0.00 in Snow Heavy Snow
11:34 AM 24.8 °F 15.3 °F 19.4 °F 80% 30.57 in 0.5 mi North 9.2 mph - 0.04 in Rain Light Freezing Rain
11:38 AM 24.8 °F 16.1 °F 19.4 °F 80% 30.57 in 2.5 mi North 8.1 mph - 0.04 in Rain Light Freezing Rain
11:53 AM 24.1 °F 14.4 °F 18.0 °F 77% 30.61 in 5.0 mi North 9.2 mph - 0.04 in Rain Light Freezing Rain
12:35 PM 24.8 °F 17.9 °F 17.6 °F 74% 30.54 in 7.0 mi North 5.8 mph - 0.00 in   Overcast
12:53 PM 24.1 °F 18.2 °F 17.1 °F 75% 30.58 in 9.0 mi NNE 4.6 mph - 0.00 in   Overcast
1:53 PM 25.0 °F 18.1 °F 18.0 °F 75% 30.55 in 6.0 mi NE 5.8 mph - 0.00 in   Haze
2:53 PM 26.1 °F 18.4 °F 17.1 °F 69% 30.52 in 8.0 mi East 6.9 mph - 0.00 in   Overcast
3:53 PM 27.0 °F 19.5 °F 17.1 °F 66% 30.50 in 10.0 mi ESE 6.9 mph - 0.00 in   Overcast
4:53 PM 28.0 °F 21.7 °F 16.0 °F 61% 30.48 in 9.0 mi ESE 5.8 mph - 0.00 in   Overcast
5:53 PM 27.0 °F 19.5 °F 16.0 °F 63% 30.45 in 10.0 mi ESE 6.9 mph - 0.00 in   Overcast
6:53 PM 28.0 °F 20.8 °F 17.1 °F 63% 30.45 in 10.0 mi SE 6.9 mph - N/A   Overcast
7:53 PM 28.0 °F 22.8 °F 18.0 °F 66% 30.42 in 10.0 mi SE 4.6 mph - N/A   Overcast
8:53 PM 28.0 °F 20.0 °F 18.0 °F 66% 30.40 in 10.0 mi SSE 8.1 mph - N/A   Overcast
9:53 PM 27.0 °F 18.0 °F 19.0 °F 72% 30.39 in 10.0 mi South 9.2 mph - N/A   Overcast
10:53 PM 27.0 °F 18.7 °F 19.9 °F 75% 30.38 in 10.0 mi South 8.1 mph - N/A   Overcast
11:53 PM 27.0 °F 18.7 °F 19.9 °F 75% 30.36 in 9.0 mi South 8.1 mph - N/A   Overcast